Dewpoint
13 13 13 13 13 13 14 14 14 14 14 15 14 15 13 10 13 15 14 13 15 15 14 13 12 13 14 14 15 15 15 15 14 14 16 15 14 14 15 14 14 14 14
14 14 14 14 14 14 14 15 14 14 15 15 15 15 15 13 13 13 14 14 13 14 14 14 12 13 13 14 14 14 14 14 15 15 15 15 15 15 14 14 14 13 14
14 14 15 14 14 14 14 15 15 15 15 15 16 16 15 15 16 14 14 14 14 13 13 14 11 13 12 13 14 14 13 13 15 15 15 15 15 15 15 15 13 13 14
14 14 15 15 15 15 15 15 15 16 17 16 17 17 16 15 15 16 15 14 14 14 14 14 12 10 13 11 12 13 14 14 14 14 14 15 14 14 14 14 15 14 14
14 14 14 15 15 15 15 16 16 16 16 15 15 17 15 15 14 15 15 15 15 15 14 14 11 12 13 12 12 13 13 13 15 14 13 15 16 15 16 15 15 16 16
14 14 14 15 15 15 15 16 16 16 17 16 16 16 16 16 16 16 16 16 16 16 15 15 12 11 13 13 14 14 13 13 14 15 15 14 14 15 15 16 15 14 15
13 14 14 14 14 15 15 16 16 16 16 17 17 17 17 17 17 16 16 17 16 16 15 15 14 12 13 14 14 14 14 13 13 13 14 15 15 14 15 15 15 14 15
10 11 12 13 14 14 15 15 15 16 17 17 17 17 17 18 18 17 16 17 17 16 16 16 16 13 13 13 13 14 14 13 13 13 13 14 14 14 14 15 15 15 16
9 9 10 11 12 13 14 15 15 15 16 17 17 18 18 18 18 18 18 17 16 16 16 15 15 15 15 15 14 14 15 14 14 14 13 14 14 14 15 15 14 14 16
6 8 8 9 11 13 14 14 15 15 16 17 17 17 18 18 18 17 17 18 17 17 16 16 16 16 15 15 14 15 14 14 14 14 13 14 14 13 13 14 14 14 15
3 5 6 9 11 12 13 14 15 16 17 17 17 18 18 17 18 18 18 18 17 17 17 17 16 16 15 14 14 13 13 14 14 14 15 14 15 15 14 14 14 15 14
4 5 7 9 10 11 12 13 14 14 16 16 17 17 18 18 17 17 17 18 18 17 17 16 15 15 15 15 15 14 14 15 15 13 14 14 14 14 15 15 15 15 16
3 4 7 9 10 11 12 12 14 15 15 16 17 18 18 17 17 17 17 17 17 17 16 16 16 15 15 15 14 15 16 15 15 15 14 14 14 15 15 15 16 15 16
4 5 7 8 9 11 12 13 14 15 16 16 17 18 17 17 17 17 17 17 16 16 16 16 16 15 15 15 15 15 15 15 14 14 12 13 15 15 15 16 17 16 15
4 7 7 8 9 11 13 13 14 15 16 17 17 17 17 17 17 17 17 16 16 16 16 16 16 16 15 14 14 15 15 14 12 11 13 15 15 16 16 15 15 15 15
5 6 8 9 10 11 13 14 14 15 15 17 16 17 17 17 16 16 17 16 16 17 16 16 16 15 15 14 14 14 13 14 14 11 11 11 11 15 15 15 15 16 15
8 8 9 9 10 11 12 14 15 15 17 17 17 17 17 17 17 17 17 16 16 15 16 16 15 15 15 15 17 17 16 16 15 14 13 11 11 13 15 16 16 15 14
9 8 12 11 11 12 13 15 16 17 18 17 18 17 17 17 17 18 17 17 16 16 16 15 15 16 15 15 16 16 16 16 16 14 15 13 11 11 14 15 15 15 14
11 12 10 13 13 14 15 16 17 18 19 18 17 17 17 18 17 17 17 18 17 17 17 15 16 16 17 16 15 14 15 15 15 13 14 14 13 12 12 12 13 13 13
11 10 14 10 14 15 16 18 19 19 19 19 18 17 15 16 16 16 17 17 17 17 16 16 16 16 16 15 16 16 14 11 12 13 14 14 13 14 12 12 11 12 13
12 12 14 16 17 18 17 18 18 17 17 18 18 18 17 17 17 17 16 16 16 16 16 16 15 15 15 15 16 15 14 8 13 14 14 14 14 13 13 12 12 10 12
14 14 13 14 15 17 17 18 19 19 19 17 17 18 19 18 17 17 16 17 15 14 14 15 15 15 16 15 15 15 14 7 14 15 15 14 14 14 14 14 12 10 10
15 14 13 10 10 13 14 16 18 19 19 20 19 19 19 19 18 18 18 16 15 12 14 13 14 13 16 15 16 14 14 10 8 14 14 14 14 14 13 14 13 13 12
13 14 15 15 13 11 11 15 18 18 18 19 19 18 18 18 18 17 17 17 15 14 10 13 15 15 10 9 14 14 14 13 11 8 9 12 13 13 13 14 14 13 13
14 15 16 17 17 15 13 13 12 14 15 14 17 17 16 16 15 15 15 16 16 14 13 13 12 13 10 13 14 12 11 12 13 13 10 9 9 13 13 13 12 13 13
14 14 15 16 16 17 15 15 14 12 11 13 15 15 15 14 15 15 15 15 15 15 15 15 14 15 14 13 11 10 11 12 13 13 13 12 11 10 9 10 11 12 13
Wind_Speed
29 30 28 27 25 25 20 24 26 24 22 23 23 20 21 28 24 16 16 15 16 15 14 11 12 14 12 13 8 6 6 6 4 6 9 11 12 15 17 20 23 24 20
31 30 29 27 27 28 29 26 29 29 28 25 23 22 16 19 15 23 18 21 23 20 17 17 15 14 12 10 9 10 7 8 9 9 9 7 13 18 16 20 22 22 22
38 32 31 30 30 29 32 31 28 28 27 30 23 22 19 20 21 22 24 23 22 25 22 21 17 15 13 12 11 10 9 10 12 10 8 7 7 10 19 21 23 23 23
36 34 33 31 33 31 31 31 32 29 27 32 30 29 28 28 28 23 26 24 24 24 24 24 23 18 16 14 14 12 12 11 13 14 14 15 9 7 5 18 22 22 23
37 36 35 32 31 30 32 31 32 33 29 26 36 33 33 29 28 27 26 28 28 28 28 21 21 21 20 17 16 19 18 14 14 14 12 14 17 16 13 8 18 24 24
35 32 30 29 31 30 32 32 33 33 30 25 30 37 35 31 29 25 26 29 27 27 27 27 24 24 23 20 15 17 20 17 16 11 12 15 15 17 23 21 15 17 25
35 33 32 31 32 32 33 34 32 33 32 28 24 29 36 34 30 29 25 27 30 31 28 25 27 28 24 24 20 19 20 23 22 16 14 16 18 17 17 20 21 20 20
35 35 35 34 35 34 34 35 33 32 32 30 28 25 25 32 33 29 27 27 31 30 28 28 25 28 28 27 27 22 19 18 22 22 18 17 18 20 20 22 21 19 20
39 38 36 34 34 36 34 35 35 31 30 29 28 27 25 23 26 28 26 29 30 29 29 22 17 22 23 24 25 24 22 19 21 24 21 18 19 19 20 21 23 22 19
38 38 30 31 32 31 32 30 33 30 27 28 26 23 22 21 22 22 22 24 26 27 23 21 18 15 17 19 20 20 16 15 15 16 19 22 20 20 20 23 23 26 23
32 32 29 31 28 28 25 26 24 24 22 22 19 19 17 17 19 20 21 21 20 22 21 19 17 16 16 16 16 15 14 14 13 15 19 20 19 23 21 21 24 21 24
30 26 30 29 28 25 22 23 22 22 20 18 17 18 15 15 14 14 19 19 20 20 17 15 15 15 15 14 14 14 13 11 14 16 18 22 24 24 26 22 23 25 21
24 22 25 27 25 24 23 22 20 20 20 19 16 18 19 16 15 15 14 17 17 17 15 14 13 13 13 13 12 12 10 10 11 15 19 17 18 18 18 19 20 24 22
25 26 25 23 23 25 25 24 22 19 19 19 19 20 20 19 17 15 15 14 14 16 16 15 13 11 11 11 11 12 11 11 11 12 17 19 15 14 16 18 20 21 25
23 27 27 27 25 24 25 25 22 19 21 20 19 20 20 18 17 18 19 16 15 14 15 15 13 12 12 12 11 11 12 11 9 9 8 7 3 8 12 18 20 19 21
25 20 29 30 27 24 26 25 23 20 21 21 20 20 21 19 15 17 14 15 19 17 15 17 15 15 15 12 11 10 11 8 9 9 6 5 4 7 11 18 18 15 20
11 22 30 31 28 26 23 24 22 20 18 22 21 21 22 21 19 17 17 17 20 17 18 17 18 17 15 13 13 17 16 13 12 9 7 4 3 3 7 11 14 15 16
10 10 19 25 23 20 19 17 20 21 19 21 21 22 23 23 22 21 19 18 20 21 20 17 17 18 16 15 15 12 18 17 15 13 11 6 3 1 3 10 14 18 20
6 9 4 19 20 19 18 15 15 19 19 19 19 22 25 23 21 26 22 21 20 22 23 23 21 22 20 20 19 15 16 19 19 16 12 10 8 7 5 6 10 11 14
10 10 9 12 19 16 15 17 17 16 16 15 15 16 20 21 20 22 23 23 21 23 23 24 26 24 23 22 20 18 18 19 20 17 15 13 10 11 12 12 10 10 12
18 16 18 23 21 14 13 13 13 13 12 13 14 14 15 16 18 19 20 19 17 16 19 21 21 22 24 23 21 21 20 18 19 17 16 14 11 12 9 11 14 13 12
20 15 16 16 15 16 14 11 16 12 13 14 15 15 14 15 16 17 19 20 17 15 17 18 20 20 22 24 21 21 18 19 23 19 20 18 15 15 14 11 11 14 15
22 15 12 11 10 9 10 11 10 9 11 16 12 12 13 15 17 19 19 23 23 24 23 24 23 22 20 21 23 22 21 20 26 26 19 19 20 19 19 18 14 15 17
15 15 9 5 6 5 5 7 8 8 9 8 9 12 15 16 18 19 19 21 22 27 26 23 27 19 15 17 20 20 22 22 26 30 30 27 22 20 19 21 19 17 17
14 13 10 6 4 2 2 1 2 4 6 4 1 1 3 2 4 5 9 9 16 20 27 25 23 26 24 23 20 19 22 27 29 29 31 29 31 27 22 23 23 21 20
10 8 11 8 8 4 3 3 3 3 5 6 5 4 3 3 5 6 3 5 9 15 18 21 29 23 22 30 29 28 33 25 26 30 32 32 32 29 26 23 23 23 23
Wind_Direction
197 192 188 195 201 203 198 202 198 201 206 211 211 210 208 212 206 207 237 247 237 244 254 265 257 232 221 231 236 247 243 248 243 259 233 231 234 245 229 227 230 221 217
190 191 188 192 199 200 206 210 212 215 220 218 217 221 220 209 212 218 236 242 250 245 257 261 262 233 219 226 229 231 237 241 227 234 233 235 239 234 224 224 227 227 222
186 188 188 193 197 204 207 213 217 219 224 225 218 217 213 220 224 217 232 239 249 248 256 265 260 233 225 225 236 236 234 234 231 232 220 200 217 230 235 228 225 231 224
187 189 194 196 203 207 213 219 221 222 226 223 218 217 221 223 221 223 230 240 248 250 254 263 257 242 237 230 239 234 243 237 237 234 233 237 227 231 248 234 233 232 228
188 191 198 204 210 212 215 223 226 227 230 221 221 226 230 231 223 225 232 239 243 246 252 258 243 240 240 241 245 253 252 249 244 241 245 237 245 239 240 262 236 231 230
185 194 202 204 210 219 219 224 228 233 234 234 226 227 230 233 227 224 225 234 242 252 253 257 248 243 241 238 271 262 250 242 246 238 251 246 246 249 239 241 248 243 233
180 191 197 202 207 213 219 225 229 231 234 235 234 232 234 234 234 231 229 230 239 244 249 254 259 248 244 233 251 277 260 242 243 241 246 256 257 258 244 246 250 251 236
184 192 199 201 206 207 215 222 229 234 234 235 239 241 238 238 241 239 235 236 243 250 254 252 256 252 249 250 255 266 257 248 240 243 249 252 267 260 247 245 242 242 223
190 192 196 204 207 205 210 217 223 232 236 237 236 239 246 245 246 248 246 242 247 253 261 267 267 242 248 255 252 256 252 252 248 241 244 253 258 254 249 242 234 230 219
187 187 188 201 205 203 206 213 220 226 233 233 234 240 247 244 247 248 243 241 244 244 250 257 266 255 250 248 253 259 241 255 253 245 247 256 255 250 255 238 239 232 241
182 171 191 189 190 189 196 196 205 218 223 227 231 239 243 238 243 243 246 249 244 245 250 255 260 253 257 240 249 239 247 252 252 252 259 260 257 257 259 249 236 237 234
140 157 177 173 173 180 192 200 210 221 226 219 232 232 230 227 239 252 248 243 243 246 237 241 249 248 240 234 238 242 251 248 262 266 267 269 272 265 260 246 232 230 231
146 149 155 164 172 181 192 204 201 209 216 224 225 218 224 228 223 232 246 236 231 237 227 233 234 239 229 230 239 243 240 258 269 269 271 274 275 264 246 231 222 212 218
158 163 166 172 180 186 195 201 205 214 209 216 215 224 218 220 223 228 227 241 232 226 231 226 229 230 226 233 235 233 235 240 261 288 291 288 269 244 226 219 205 208 211
163 168 176 181 190 196 201 206 213 213 201 214 219 218 222 230 239 225 215 216 216 219 215 220 221 227 223 225 225 233 236 248 281 300 316 322 277 232 229 220 215 216 223
176 175 184 185 191 202 208 213 218 215 203 210 223 222 226 233 235 210 207 215 210 214 217 221 226 223 225 224 214 215 228 254 280 284 318 326 285 223 221 226 226 220 228
125 191 186 190 193 203 211 214 219 219 211 211 220 222 230 237 235 224 224 228 218 217 215 218 221 225 229 225 232 241 251 260 279 279 295 306 348 263 219 215 222 204 194
111 127 190 191 196 203 211 217 220 216 217 218 219 225 230 236 239 228 235 232 225 220 219 223 224 232 231 231 232 252 251 259 270 272 279 283 274 359 198 204 219 229 226
169 143 120 202 200 206 204 206 209 215 223 229 230 233 234 237 241 229 232 234 229 233 230 233 230 239 242 237 225 228 241 254 263 266 270 267 265 265 243 217 220 216 212
134 130 99 157 190 193 199 201 204 218 228 244 250 244 242 241 237 231 229 237 241 248 248 246 245 244 243 236 235 240 237 244 247 251 263 264 253 252 252 249 241 220 212
123 132 129 125 125 156 190 202 217 236 255 268 275 269 262 249 248 247 239 239 248 261 268 268 270 260 251 243 240 249 249 236 225 234 251 261 258 242 237 246 251 246 220
125 137 143 139 145 160 155 153 214 237 259 254 265 263 263 258 255 248 241 229 211 234 239 269 262 263 269 256 257 252 248 234 229 236 236 253 261 258 249 240 241 245 249
124 134 134 128 137 162 187 200 188 204 224 228 245 252 254 250 251 247 244 239 228 231 222 236 239 238 239 268 260 264 259 244 231 234 239 243 246 250 248 238 240 239 245
128 124 127 130 126 142 174 196 215 229 226 216 228 245 250 250 255 261 262 263 237 224 229 244 238 231 219 272 263 254 262 261 244 239 242 245 250 243 245 240 240 244 254
135 145 146 143 133 146 126 299 251 230 237 254 326 272 289 297 302 295 290 274 241 225 251 252 249 249 251 235 242 260 269 266 260 254 244 248 250 247 242 238 251 251 253
131 134 136 133 128 133 86 41 338 142 150 164 176 169 190 325 312 319 310 273 260 262 262 253 244 243 250 241 254 272 284 277 252 251 245 251 249 246 247 250 255 259 259
Height
1494 1496 1498 1502 1506 1510 1512 1514 1516 1519 1523 1527 1530 1534 1538 1542 1545 1548 1549 1550 1552 1554 1557 1558 1559 1561 1562 1563 1564 1566 1568 1567 1568 1569 1570 1571 1574 1573 1576 1579 1579 1582 1585
1491 1493 1495 1498 1502 1506 1509 1512 1514 1517 1520 1523 1527 1531 1535 1539 1542 1545 1546 1548 1549 1550 1553 1555 1557 1558 1560 1561 1563 1564 1565 1566 1566 1567 1567 1569 1571 1569 1570 1574 1575 1578 1580
1483 1487 1490 1493 1498 1501 1504 1507 1510 1514 1518 1520 1525 1529 1533 1536 1538 1541 1543 1544 1546 1547 1549 1551 1553 1555 1557 1559 1560 1562 1563 1563 1563 1564 1563 1565 1565 1567 1568 1570 1571 1573 1575
1479 1483 1486 1489 1492 1497 1501 1504 1508 1512 1516 1518 1521 1524 1527 1530 1533 1536 1539 1541 1543 1544 1546 1547 1549 1552 1553 1555 1557 1560 1561 1560 1560 1561 1561 1561 1562 1565 1565 1566 1568 1570 1572
1472 1477 1480 1484 1488 1493 1496 1499 1503 1507 1511 1514 1517 1520 1522 1526 1530 1534 1537 1538 1539 1541 1542 1545 1546 1548 1550 1551 1553 1555 1557 1557 1557 1557 1559 1560 1560 1563 1563 1563 1563 1565 1567
1468 1472 1476 1482 1485 1489 1492 1494 1497 1501 1505 1509 1512 1515 1517 1520 1525 1529 1530 1532 1535 1537 1538 1539 1541 1543 1545 1548 1549 1550 1550 1552 1553 1552 1555 1557 1557 1556 1559 1560 1560 1561 1562
1462 1467 1471 1476 1480 1483 1487 1489 1492 1495 1499 1503 1506 1509 1512 1516 1520 1523 1526 1528 1529 1530 1532 1534 1535 1537 1540 1543 1544 1544 1545 1546 1547 1549 1551 1551 1553 1554 1555 1556 1558 1558 1559
1454 1458 1463 1468 1471 1477 1481 1484 1487 1490 1493 1498 1501 1505 1508 1511 1514 1518 1522 1523 1523 1525 1528 1530 1530 1532 1534 1537 1539 1539 1539 1540 1542 1544 1547 1548 1548 1549 1550 1552 1554 1555 1555
1448 1453 1458 1463 1466 1472 1475 1478 1482 1486 1490 1493 1497 1500 1503 1507 1509 1512 1516 1517 1519 1520 1522 1523 1525 1526 1528 1530 1532 1533 1534 1535 1536 1538 1542 1542 1543 1539 1545 1547 1548 1551 1550
1442 1450 1455 1458 1463 1468 1472 1477 1480 1483 1486 1490 1493 1497 1499 1503 1506 1508 1510 1512 1515 1517 1519 1519 1520 1521 1522 1524 1526 1527 1529 1531 1532 1534 1536 1537 1538 1538 1540 1541 1542 1545 1547
1439 1445 1450 1455 1461 1466 1470 1475 1478 1481 1484 1487 1491 1493 1497 1500 1502 1504 1505 1508 1510 1512 1514 1514 1516 1517 1519 1521 1522 1523 1526 1527 1528 1530 1530 1532 1534 1534 1534 1535 1537 1538 1542
1438 1445 1450 1454 1459 1463 1467 1471 1474 1478 1481 1485 1488 1490 1494 1496 1498 1499 1501 1503 1505 1507 1509 1510 1512 1513 1515 1517 1518 1520 1523 1523 1524 1526 1526 1525 1525 1526 1525 1527 1531 1534 1536
1437 1442 1447 1452 1456 1460 1464 1468 1472 1475 1479 1483 1485 1487 1489 1492 1495 1497 1497 1499 1501 1503 1505 1507 1508 1510 1511 1513 1515 1517 1518 1519 1521 1521 1520 1519 1518 1517 1518 1520 1524 1528 1531
1434 1440 1446 1450 1454 1458 1461 1465 1469 1473 1476 1479 1481 1483 1486 1489 1492 1494 1495 1497 1498 1500 1502 1504 1506 1507 1508 1510 1512 1513 1515 1515 1516 1515 1514 1512 1510 1512 1513 1515 1518 1521 1527
1435 1440 1443 1446 1451 1456 1460 1463 1467 1471 1474 1476 1478 1479 1483 1486 1488 1490 1492 1493 1495 1497 1498 1500 1502 1503 1504 1506 1507 1510 1511 1512 1511 1511 1509 1507 1507 1509 1511 1514 1516 1518 1522
1433 1437 1440 1442 1447 1452 1457 1461 1464 1468 1472 1474 1477 1479 1481 1484 1484 1485 1486 1488 1491 1494 1495 1497 1499 1501 1501 1503 1505 1506 1508 1509 1509 1509 1508 1506 1505 1505 1508 1511 1513 1517 1519
1433 1435 1437 1440 1443 1447 1453 1458 1462 1465 1469 1472 1476 1477 1479 1480 1480 1482 1485 1487 1488 1490 1492 1494 1496 1497 1500 1502 1504 1505 1506 1507 1508 1508 1507 1506 1505 1505 1504 1508 1511 1514 1516
1433 1435 1439 1440 1442 1446 1451 1455 1459 1463 1467 1470 1473 1475 1477 1478 1480 1482 1485 1487 1489 1491 1493 1494 1495 1497 1497 1498 1501 1502 1504 1505 1506 1507 1507 1506 1506 1505 1505 1506 1509 1512 1512
1432 1434 1438 1439 1440 1444 1448 1452 1456 1460 1464 1467 1470 1472 1474 1476 1479 1481 1483 1485 1488 1490 1491 1492 1493 1495 1496 1496 1495 1496 1499 1500 1501 1503 1504 1505 1506 1507 1506 1506 1507 1508 1510
1433 1433 1435 1436 1439 1444 1447 1450 1453 1457 1460 1463 1466 1468 1469 1472 1474 1476 1480 1483 1487 1490 1492 1494 1493 1492 1492 1494 1496 1495 1494 1495 1496 1499 1500 1502 1503 1504 1506 1508 1508 1508 1509
1428 1432 1434 1436 1440 1444 1447 1449 1453 1455 1458 1461 1462 1463 1465 1467 1470 1473 1477 1481 1486 1488 1491 1490 1490 1492 1491 1491 1490 1493 1493 1492 1492 1494 1496 1498 1500 1502 1503 1504 1507 1508 1508
1427 1431 1433 1436 1440 1444 1446 1448 1451 1453 1454 1457 1458 1460 1462 1464 1466 1469 1472 1473 1471 1476 1480 1485 1485 1487 1483 1489 1490 1490 1490 1489 1490 1490 1491 1493 1496 1498 1500 1500 1501 1503 1505
1429 1429 1433 1437 1440 1442 1444 1446 1447 1449 1451 1454 1457 1458 1459 1461 1462 1463 1466 1467 1469 1469 1471 1475 1477 1475 1478 1481 1485 1488 1487 1486 1486 1486 1486 1487 1491 1494 1495 1496 1497 1499 1501
1428 1430 1433 1436 1438 1440 1442 1444 1445 1447 1450 1452 1453 1455 1456 1456 1457 1459 1460 1460 1462 1463 1466 1469 1469 1472 1471 1468 1470 1479 1481 1482 1482 1482 1483 1482 1485 1487 1490 1490 1492 1494 1496
1427 1431 1434 1436 1438 1439 1441 1442 1443 1445 1447 1448 1450 1452 1452 1453 1453 1454 1454 1454 1457 1460 1461 1462 1464 1466 1467 1470 1472 1473 1475 1476 1476 1476 1477 1476 1478 1480 1483 1485 1487 1489 1490
1429 1432 1435 1437 1438 1438 1439 1441 1441 1443 1445 1446 1448 1450 1451 1450 1450 1451 1451 1453 1454 1455 1454 1455 1457 1461 1462 1464 1465 1465 1465 1464 1465 1467 1469 1470 1472 1475 1477 1480 1482 1484 1485